Flag for France Weather past 2 weeks in Paris, France

Now
43 °F

Clear.


Feels Like: 37 °F
Forecast: 37 / 67 °F
Wind: 10 mph from East

Location: Villacoublay


UV Index: 3 (Moderate)

Visibility: N/A


Pressure: 30.30 "Hg

Humidity: 66%

Dew point: 32 °F

Location of ParisLocation

Historic Weather in Paris

°F

Paris temperature yesterday

Maximum temperature yesterday: 55 °F (at 3:30 PM)
Minimum temperature yesterday: 43 °F (at 5:00 AM)
Average temperature yesterday: 50 °F

Past Weeks' High & Low Weather Summary

 TemperatureHumidityPressure
High72 °F (Apr 7, 4:30 PM)100% (Apr 7, 3:30 AM)30.36 "Hg (Apr 7, 3:30 AM)
Low39 °F (Apr 9, 6:30 AM)34% (Apr 14, 5:00 PM)29.50 "Hg (Apr 3, 2:30 AM)
Average55 °F67%30.02 "Hg
* Reported Apr 1 4:00 AM — Apr 16 4:30 AM, Paris, Weather by CustomWeather, © 2014

Note: Actual official high and low records may vary slightly from our data, if they occured in-between our weather recording intervals... More about our weather records

Advertising

Historic Weather Conditions — Data for Previous 24 hours

 ConditionsComfort  
Time TempWeatherWind HumidityBarometerVisibility
4:30 AM
Apr 16
43 °FClear.9 mph66%30.30 "HgN/A
4:00 AM43 °FClear.7 mph66%30.30 "HgN/A
3:30 AM45 °FClear.8 mph61%30.30 "HgN/A
3:00 AM45 °FClear.9 mph61%30.30 "HgN/A
2:30 AM45 °FClear.9 mph61%30.33 "HgN/A
1:00 AM48 °FClear.12 mph54%30.33 "HgN/A
12:30 AM48 °FClear.9 mph54%30.33 "HgN/A
12:00 AM48 °FClear.8 mph54%30.33 "HgN/A
11:30 PM
Apr 15
50 °FClear.8 mph50%30.33 "HgN/A
11:00 PM50 °FClear.8 mph50%30.33 "HgN/A
10:30 PM50 °FClear.9 mph50%30.33 "HgN/A
10:00 PM50 °FClear.9 mph50%30.30 "HgN/A
9:30 PM52 °FClear.10 mph44%30.30 "HgN/A
9:00 PM52 °FClear.12 mph47%30.30 "HgN/A
8:30 PM54 °FClear.9 mph41%30.30 "HgN/A
8:00 PM54 °FClear.12 mph41%30.30 "HgN/A
7:30 PM55 °FClear.12 mph38%30.30 "HgN/A
7:00 PM55 °FClear.12 mph38%30.30 "HgN/A
6:30 PM55 °FClear.10 mph38%30.30 "HgN/A
6:00 PM55 °FClear.13 mph38%30.30 "HgN/A
5:30 PM55 °FClear.12 mph36%30.30 "HgN/A
5:00 PM55 °FClear.12 mph36%30.30 "HgN/A
4:30 PM55 °FClear.13 mph38%30.30 "HgN/A
4:00 PM55 °FClear.12 mph41%30.33 "HgN/A
3:30 PM55 °FClear.10 mph38%30.33 "HgN/A
3:00 PM54 °FClear.12 mph44%30.33 "HgN/A
2:30 PM54 °FClear.13 mph44%30.33 "HgN/A
2:00 PM54 °FClear.10 mph44%30.33 "HgN/A
1:30 PM52 °FPassing clouds.13 mph47%30.36 "HgN/A
1:00 PM52 °FPassing clouds.14 mph47%30.33 "HgN/A
12:30 PM50 °FPassing clouds.13 mph50%30.33 "HgN/A
12:00 PM50 °FPassing clouds.13 mph50%30.33 "HgN/A
11:30 AM50 °FScattered clouds.13 mph54%30.33 "HgN/A
11:00 AM50 °FPartly sunny.14 mph54%30.33 "HgN/A
10:30 AM46 °FPartly sunny.13 mph62%30.33 "HgN/A
10:00 AM46 °FScattered clouds.15 mph62%30.33 "HgN/A
9:00 AM45 °FClear.12 mph71%30.33 "HgN/A
8:30 AM45 °FClear.12 mph71%30.33 "HgN/A
8:00 AM43 °FClear.12 mph76%30.33 "HgN/A
7:30 AM43 °FClear.12 mph76%30.30 "HgN/A
6:30 AM43 °FClear.9 mph76%30.30 "HgN/A
Weather by CustomWeather, © 2014

See weather overview